Lexington Weather

Lexington, Massachusetts, USA

43°F
9/19/2020 7:35am 
  • Lexington Conditions: Clear
  • Temperature: 43.0°F / 6.1°CColder 0.2°F than last hour.
  • Dew Point: 34.9°FDecreased 0.9°Fsince last hour.
  • Relative Humidity: 73%Decreased 2.0% since last hour.
  • Wind: Wind from NNE NNE 1 mph, 10-min avg: 1 mph, gust: 2 mph
  • Barometer: 30.23 inRising 0.03  inHg/hr Rising Slowly
  • Visibility: 10 miles
  • Rain Today: 0.00 in
  •   
Southeast Middlesex County - Special Weather Statement
 - SEE ALL NEARBY ALERTS -

Regional Weather Roundup
for Boston / Norton, MA

        
000
ASUS41 KBOX 170104
RWRBOX

REGIONAL WEATHER ROUNDUP
NATIONAL WEATHER SERVICE BOSTON/NORTON MA
900 PM EDT WED SEP 16 2020

NOTE:  "FAIR" INDICATES FEW OR NO CLOUDS BELOW 12,000 FEET WITH NO 
SIGNIFICANT WEATHER AND/OR OBSTRUCTIONS TO VISIBILITY.

MAZALL-170200-
EASTERN MASSACHUSETTS
  
CITY           SKY/WX    TMP DP  RH WIND       PRES   REMARKS
BOSTON         CLEAR     63  53  70 S13       30.10R                  
BEVERLY        CLEAR     65  53  65 SW14G28   30.08R                  
LAWRENCE       CLEAR     65  54  67 S12G20    30.09S                  
BEDFORD        CLEAR     64  53  67 SW12      30.08S                  
BLUE HILL        N/A     61  53  75 S18G24    30.10S                  
NORWOOD        CLEAR     62  53  72 S7        30.11S                  
MARSHFIELD     PTCLDY    64  59  82 S9G15     30.12R                  
PLYMOUTH       CLEAR     63  57  81 S9        30.13S                  
TAUNTON        CLEAR     63  56  78 SE5       30.13S                  
NEW BEDFORD    PTCLDY    62  57  83 S3        30.14S                  
$$

MAZALL-170200-
CAPE COD AND THE ISLANDS
  
CITY           SKY/WX    TMP DP  RH WIND       PRES   REMARKS
FALMOUTH       PTCLDY    64  57  77 SW14      30.15S                  
HYANNIS        PTCLDY    67  59  75 S10       30.14S                  
CHATHAM        CLEAR     64  59  83 VRB7      30.17S                  
PROVINCETOWN   CLEAR     64  59  83 S15       30.14S                  
NANTUCKET      CLEAR     66  61  84 S12       30.17S                  
MARTHAS VNYRD  PTCLDY    65  60  84 SW10      30.16S                  
$$
 
MAZALL-170200-
CENTRAL AND WESTERN MASSACHUSETTS
  
CITY           SKY/WX    TMP DP  RH WIND       PRES   REMARKS
WORCESTER      CLEAR     60  53  77 SW16      30.12R                  
FITCHBURG      CLEAR     63  53  70 CALM      30.09S                  
ORANGE         CLEAR     64  54  69 S13       30.10R                  
SPRINGFIELD    MOCLDY    63  53  70 S5        30.10R                  
WESTFIELD      CLEAR     62  54  74 S10       30.10R                  
NORTH ADAMS    CLEAR     64  49  57 SW6G24    30.08R                  
PITTSFIELD     CLEAR     61  51  70 SW8       30.09R                  
$$
 
RIZALL-170200-
RHODE ISLAND
  
CITY           SKY/WX    TMP DP  RH WIND       PRES   REMARKS
PROVIDENCE     PTCLDY    62  56  80 SW8       30.15R                  
NEWPORT        CLEAR     66  58  75 S8        30.14S                  
BLOCK ISLAND   MOCLDY    65  59  81 SW9       30.16S                  
SMITHFIELD     CLEAR     60  57  89 VRB6      30.14R                  
WESTERLY       PTCLDY    67  57  70 SW8       30.15S                  
$$
 
CTZALL-170200-
CONNECTICUT
  
CITY           SKY/WX    TMP DP  RH WIND       PRES   REMARKS
BRADLEY INTL   MOCLDY    63  53  70 S12       30.11S                  
HARTFORD       CLEAR     63  54  72 S3        30.13R                  
BRIDGEPORT     CLEAR     69  57  65 S15       30.13S                  
DANBURY        CLEAR     61  55  81 SW6       30.14R                  
GROTON         PTCLDY    66  59  78 SW15      30.14R                  
NEW HAVEN      CLEAR     69  58  67 S13G20    30.14R                  
CHESTER        NOT AVBL                                               
MERIDEN        CLEAR     60  54  80 CALM      30.13R                  
WILLIMANTIC    CLEAR     59  54  83 CALM      30.14R                  
OXFORD         CLEAR     59  55  87 S6        30.15R                  
$$

MEZ002-015-021-024-NHZ003-005-008-011-012-014-VTZ005-008-170200-
NORTHERN NEW ENGLAND
  
CITY           SKY/WX    TMP DP  RH WIND       PRES   REMARKS
PORTLAND ME    CLEAR     65  55  70 SW6       30.03R                  
BANGOR ME      MOCLDY    62  53  72 S9        29.96S                  
CONCORD NH     CLEAR     63  51  65 S6        30.06R                  
MANCHESTER NH  CLEAR     66  52  60 S12       30.04S                  
NASHUA NH      CLEAR     64  56  75 VRB5      30.07S                  
PORTSMOUTH NH  PTCLDY    64  51  62 S12       30.04R                  
JAFFREY NH     CLEAR     61  52  72 SW12      30.09R                  
KEENE NH       CLEAR     61  53  75 VRB5      30.08R                  
BURLINGTON VT  PTCLDY    66  45  46 S17G25    29.95R                  
MT. WASHINGTON CLOUDY    46  19  34 W62G68      N/A                   
$$

NYZ052-076-170200-
EASTERN NEW YORK
  
CITY           SKY/WX    TMP DP  RH WIND       PRES   REMARKS
ALBANY         MOCLDY    60  50  69 S10       30.06R                  
NEW YORK CITY  MOCLDY    70  55  59 S10       30.12S                  
$$
 
ANZALL-170200-
MARINE OBSERVATIONS
  
STATION/POSITION TIME  TEMP    WIND        PRES    VSBY  WAVE
                       AIR SEA DIR/SP/G                  HT/PER
                 (UTC) (F)     (DEG/KT/KT) (MB)    (MI)  (FT/S)
BOSTON BUOY      0050   65 64  190/ 16/ 19 1018.1R         3/10
BUZZARDS BAY     0000          210/ 16/ 17 1021.7F
NANTUCKET SOUND  0040      70  190/ 14/ 17   N/A
MASS BAY-STELLWA 0004   65     230/ 17/ 21 1016.4F  1 7/8  4/ 4
ISLE OF SHOALS   0000   65     190/ 24/ 25 1017.2R
S OF BLOCK IS    0026      70                N/A           4/10
$$

......................KEY.........................
  SKY/WX - SKY CONDITION/PRESENT WEATHER
  TMP    - TEMPERATURE IN FAHRENHEIT
  DWPT   - DEWPOINT IN FAHRENHEIT
  RH     - RELATIVE HUMIDITY IN PERCENT
  WIND   - DIRECTION AND SPEED IN MPH
  PRES   - MEAN SEA LEVEL PRESSURE IN INCHES OF HG
  WCI    - WIND CHILL INDEX
  VSB    - VISIBILITY IN MILES
  HX     - HEAT INDEX
  TC     - TEMPERATURE IN CELSIUS
  VRB    - VARIABLE WIND DIRECTION
  N/A    - NOT AVAILABLE
  
      

Other recent Regional Weather Roundups

Sat Sep 19, 7:04am

Sat Sep 19, 6:04am

Sat Sep 19, 5:04am

Sat Sep 19, 4:04am

Sat Sep 19, 3:04am

Sat Sep 19, 2:04am

Sat Sep 19, 1:04am

Sat Sep 19, 12:04am

Fri Sep 18, 11:05pm

Fri Sep 18, 10:04pm

Fri Sep 18, 9:04pm

Fri Sep 18, 8:04pm

Fri Sep 18, 7:04pm

Fri Sep 18, 6:04pm

Fri Sep 18, 5:05pm

Fri Sep 18, 4:04pm

Fri Sep 18, 3:05pm

Fri Sep 18, 2:04pm

Fri Sep 18, 1:04pm

Fri Sep 18, 12:04pm

Fri Sep 18, 11:05am

Fri Sep 18, 10:05am

Fri Sep 18, 9:04am

Fri Sep 18, 8:04am

Fri Sep 18, 7:04am

Fri Sep 18, 6:04am

Fri Sep 18, 5:04am

Fri Sep 18, 4:04am

Fri Sep 18, 3:04am

Fri Sep 18, 2:04am

Fri Sep 18, 1:04am

Fri Sep 18, 12:04am

Thu Sep 17, 11:05pm

Thu Sep 17, 10:04pm

Thu Sep 17, 9:04pm

Thu Sep 17, 8:05pm

Thu Sep 17, 7:04pm

Thu Sep 17, 6:04pm

Thu Sep 17, 5:04pm

Thu Sep 17, 4:04pm

Thu Sep 17, 3:05pm

Thu Sep 17, 2:04pm

Thu Sep 17, 1:04pm

Thu Sep 17, 12:04pm

Thu Sep 17, 11:04am

Thu Sep 17, 10:04am

Thu Sep 17, 9:04am

Thu Sep 17, 8:04am

Thu Sep 17, 7:04am

Thu Sep 17, 6:04am

Thu Sep 17, 5:04am

Thu Sep 17, 4:04am

Thu Sep 17, 3:04am

Thu Sep 17, 2:05am

Thu Sep 17, 1:05am

Thu Sep 17, 12:04am

Wed Sep 16, 11:04pm

Wed Sep 16, 10:04pm

Wed Sep 16, 8:05pm

Wed Sep 16, 7:04pm

Wed Sep 16, 6:04pm

Wed Sep 16, 5:04pm

Wed Sep 16, 4:04pm

Wed Sep 16, 3:04pm

Wed Sep 16, 2:04pm

Wed Sep 16, 1:04pm

Wed Sep 16, 12:04pm

Wed Sep 16, 11:04am

Wed Sep 16, 10:04am

Wed Sep 16, 9:04am

Wed Sep 16, 8:04am

Wed Sep 16, 7:04am

Wed Sep 16, 6:04am

Wed Sep 16, 5:04am

Wed Sep 16, 4:04am

Wed Sep 16, 3:04am

Wed Sep 16, 2:04am

Wed Sep 16, 1:04am

Wed Sep 16, 12:05am

Tue Sep 15, 11:04pm

Tue Sep 15, 10:04pm

Tue Sep 15, 9:04pm

Tue Sep 15, 8:04pm

Tue Sep 15, 7:04pm

Tue Sep 15, 6:04pm

Tue Sep 15, 5:04pm

Tue Sep 15, 4:05pm

Tue Sep 15, 3:04pm

Tue Sep 15, 2:04pm

Tue Sep 15, 1:04pm

Tue Sep 15, 12:04pm

Tue Sep 15, 11:04am

Tue Sep 15, 10:04am

Tue Sep 15, 9:04am

Tue Sep 15, 8:04am

Tue Sep 15, 7:04am

Tue Sep 15, 6:04am

Tue Sep 15, 5:04am

Tue Sep 15, 4:04am

Tue Sep 15, 3:04am

Tue Sep 15, 2:04am

Tue Sep 15, 1:04am

Tue Sep 15, 12:05am

Mon Sep 14, 11:04pm

Mon Sep 14, 10:04pm

Mon Sep 14, 9:04pm

Mon Sep 14, 8:04pm

Mon Sep 14, 7:04pm

Mon Sep 14, 6:04pm

Mon Sep 14, 5:04pm

Mon Sep 14, 4:05pm

Mon Sep 14, 3:04pm

Mon Sep 14, 2:05pm

Mon Sep 14, 1:04pm

Mon Sep 14, 12:04pm

Mon Sep 14, 11:04am

Mon Sep 14, 10:05am

Mon Sep 14, 9:04am

Mon Sep 14, 8:04am

Mon Sep 14, 7:04am

Mon Sep 14, 6:04am

Mon Sep 14, 5:04am

Mon Sep 14, 4:04am

Mon Sep 14, 3:04am

Mon Sep 14, 2:04am

Mon Sep 14, 1:04am

Mon Sep 14, 12:04am

Sun Sep 13, 11:05pm

Sun Sep 13, 10:04pm

Sun Sep 13, 9:04pm

Sun Sep 13, 8:04pm

Sun Sep 13, 7:05pm

Sun Sep 13, 6:05pm

Sun Sep 13, 5:05pm

Sun Sep 13, 4:04pm

Sun Sep 13, 3:04pm

Sun Sep 13, 2:04pm

Sun Sep 13, 1:04pm

Sun Sep 13, 12:04pm

Sun Sep 13, 11:05am

Sun Sep 13, 10:04am

Sun Sep 13, 9:04am

Sun Sep 13, 8:04am

Sun Sep 13, 7:04am

Sun Sep 13, 6:04am

Sun Sep 13, 5:04am

Sun Sep 13, 4:04am

Sun Sep 13, 3:04am

Sun Sep 13, 2:04am

Sun Sep 13, 1:04am

Sun Sep 13, 12:04am

Sat Sep 12, 11:04pm

Sat Sep 12, 10:04pm

Sat Sep 12, 9:04pm

Sat Sep 12, 8:04pm

Sat Sep 12, 7:05pm

Sat Sep 12, 6:04pm

Sat Sep 12, 5:04pm

Sat Sep 12, 4:05pm

Sat Sep 12, 3:04pm

Sat Sep 12, 2:04pm

Sat Sep 12, 1:05pm

Sat Sep 12, 12:04pm

Sat Sep 12, 11:04am

Sat Sep 12, 10:04am

Sat Sep 12, 9:04am

Sat Sep 12, 8:04am

Meta data:

ID: 8bfdf33f-e889-4567-b2a9-6fb214a97910
Link: https://api.weather.gov/products/8bfdf33f-e889-4567-b2a9-6fb214a97910